2023/09/15 00:00:00, 0.0,24.0
2023/09/15 00:10:00, 0.0,23.9
2023/09/15 00:20:00, 0.0,23.9
2023/09/15 00:30:00, 0.0,23.8
2023/09/15 00:40:00, 0.0,23.9
2023/09/15 00:50:00, 0.0,23.9
2023/09/15 01:00:00, 0.0,23.7
2023/09/15 01:10:00, 0.0,23.7
2023/09/15 01:20:00, 0.0,23.6
2023/09/15 01:30:00, 0.0,23.7
2023/09/15 01:40:00, 0.0,23.7
2023/09/15 01:50:00, 0.0,23.8
2023/09/15 02:00:00, 0.0,23.7
2023/09/15 02:10:00, 0.0,23.6
2023/09/15 02:20:00, 0.0,23.6
2023/09/15 02:30:00, 0.0,23.6
2023/09/15 02:40:00, 0.0,23.6
2023/09/15 02:50:00, 0.0,23.9
2023/09/15 03:00:00, 0.0,23.2
2023/09/15 03:10:00, 0.0,23.7
2023/09/15 03:20:00, 0.0,23.8
2023/09/15 03:30:00, 0.0,23.9
2023/09/15 03:40:00, 0.0,23.7
2023/09/15 03:50:00, 0.1,23.8
2023/09/15 04:00:00, 0.0,23.4
2023/09/15 04:10:00, 0.0,23.7
2023/09/15 04:20:00, 0.0,23.4
2023/09/15 04:30:00, 0.0,23.7
2023/09/15 04:40:00, 0.0,23.6
2023/09/15 04:50:00, 0.0,23.7
2023/09/15 05:00:00, 0.0,23.8
2023/09/15 05:10:00, 0.0,23.7
2023/09/15 05:20:00, 0.0,23.7
2023/09/15 05:30:00, 0.0,23.7
2023/09/15 05:40:00, 0.0,23.5
2023/09/15 05:50:00, 0.1,23.5
2023/09/15 06:00:00, 0.1,23.7
2023/09/15 06:10:00, 0.0,23.6
2023/09/15 06:20:00, 0.0,23.7
2023/09/15 06:30:00, 0.0,24.0
2023/09/15 06:40:00, 0.1,23.9
2023/09/15 06:50:00, 0.1,23.9
2023/09/15 07:00:00, 0.1,24.2
2023/09/15 07:10:00, 0.1,24.1
2023/09/15 07:20:00, 0.1,24.3
2023/09/15 07:30:00, 0.2,24.5
2023/09/15 07:40:00, 0.1,25.1
2023/09/15 07:50:00, 0.1,25.5
2023/09/15 08:00:00, 0.1,25.2
2023/09/15 08:10:00, 0.1,25.9
2023/09/15 08:20:00, 0.1,26.2
2023/09/15 08:30:00, 0.2,26.4
2023/09/15 08:40:00, 0.2,27.0
2023/09/15 08:50:00, 0.1,27.0
2023/09/15 09:00:00, 0.0,26.8
2023/09/15 09:10:00, 0.0,26.8
2023/09/15 09:20:00, 0.0,26.5
2023/09/15 09:30:00, 0.0,27.3
2023/09/15 09:40:00, 0.0,27.1
2023/09/15 09:50:00, 0.0,28.2
2023/09/15 10:00:00, 0.0,28.2
2023/09/15 10:10:00, 0.0,28.0
2023/09/15 10:20:00, 0.0,28.4
2023/09/15 10:30:00, 0.0,29.2
2023/09/15 10:40:00, 0.0,29.0
2023/09/15 10:50:00, 0.0,29.6
2023/09/15 11:00:00, 0.0,29.4
2023/09/15 11:10:00, 0.0,30.0
2023/09/15 11:20:00, 0.0,30.3
2023/09/15 11:30:00, 0.0,29.9
2023/09/15 11:40:00, 0.0,30.2
2023/09/15 11:50:00, 0.1,30.7
2023/09/15 12:00:00, 0.1,29.7
2023/09/15 12:10:00, 0.0,29.3
2023/09/15 12:20:00, 0.0,29.6
2023/09/15 12:30:00, 0.0,30.3
2023/09/15 12:40:00, 0.0,29.3
2023/09/15 12:50:00, 0.0,29.1
2023/09/15 13:00:00, 0.0,28.8
2023/09/15 13:10:00, 0.0,28.8
2023/09/15 13:20:00, 0.0,29.9
2023/09/15 13:30:00, 0.0,29.2
2023/09/15 13:40:00, 0.0,29.1
2023/09/15 13:50:00, 0.0,29.0
2023/09/15 14:00:00, 0.0,29.5
2023/09/15 14:10:00, 0.0,29.7
2023/09/15 14:20:00, 0.0,29.9
2023/09/15 14:30:00, 0.0,29.4
2023/09/15 14:40:00, 0.0,29.4
2023/09/15 14:50:00, 0.0,30.4
2023/09/15 15:00:00, 0.0,30.6
2023/09/15 15:10:00, 0.0,30.4
2023/09/15 15:20:00, 0.1,30.4
2023/09/15 15:30:00, 0.1,31.4
2023/09/15 15:40:00, 0.1,31.5
2023/09/15 15:50:00, 0.1,31.7
2023/09/15 16:00:00, 0.0,31.8
2023/09/15 16:10:00, 0.0,30.8
2023/09/15 16:20:00, 0.0,30.0
2023/09/15 16:30:00, 0.0,29.6
2023/09/15 16:40:00, 0.0,28.9
2023/09/15 16:50:00, 0.0,28.2
2023/09/15 17:00:00, 0.0,27.6
2023/09/15 17:10:00, 0.0,27.6
2023/09/15 17:20:00, 0.0,27.2
2023/09/15 17:30:00, 0.0,27.5
2023/09/15 17:40:00, 0.0,26.8
2023/09/15 17:50:00, 0.0,26.5
2023/09/15 18:00:00, 0.0,26.3
2023/09/15 18:10:00, 0.0,26.0
2023/09/15 18:20:00, 0.0,25.5
2023/09/15 18:30:00, 0.0,25.5
2023/09/15 18:40:00, 0.0,25.7
2023/09/15 18:50:00, 0.0,25.4
2023/09/15 19:00:00, 0.0,25.2
2023/09/15 19:10:00, 0.0,25.0
2023/09/15 19:20:00, 0.0,25.0
2023/09/15 19:30:00, 0.0,25.0
2023/09/15 19:40:00, 0.0,24.9
2023/09/15 19:50:00, 0.0,25.0
2023/09/15 20:00:00, 0.0,24.6
2023/09/15 20:10:00, 0.0,24.8
2023/09/15 20:20:00, 0.0,25.1
2023/09/15 20:30:00, 0.0,24.7
2023/09/15 20:40:00, 0.0,24.7
2023/09/15 20:50:00, 0.1,24.7
2023/09/15 21:00:00, 0.0,24.7
2023/09/15 21:10:00, 0.0,24.6
2023/09/15 21:20:00, 0.0,24.5
2023/09/15 21:30:00, 0.0,24.3
2023/09/15 21:40:00, 0.0,24.4
2023/09/15 21:50:00, 0.0,24.3
2023/09/15 22:00:00, 0.0,24.3
2023/09/15 22:10:00, 0.0,24.3
2023/09/15 22:20:00, 0.0,24.3
2023/09/15 22:30:00, 0.0,24.5
2023/09/15 22:40:00, 0.0,24.1
2023/09/15 22:50:00, 0.0,24.3
2023/09/15 23:00:00, 0.0,24.0
2023/09/15 23:10:00, 0.0,24.3
2023/09/15 23:20:00, 0.0,24.0
2023/09/15 23:30:00, 0.0,24.0
2023/09/15 23:40:00, 0.0,24.2
2023/09/15 23:50:00, 0.0,24.1
